This demonstration page uses our WeatherBlox Daily Observations layout. Learn more.

38.89511, -77.03637

Hourly Observations for October 15, 2018

Temp ( °F °C ) Dew Point ( °F °C ) Humidity (%) Winds ( mph kmh ) Pressure ( in mb ) Visibility ( mi km ) Precip ( " mm )
12:52 am 00:52 Cloudy with Light Rain 58 14.4 54 12.2 87 87 S 5 7 30.19 1022 4 6.43736 0 0.0254
1:52 am 01:52 Cloudy 59 15 54 12.2 83 83 SSW 7 11 30.18 1022 10 16.0934 0 0.0254
2:52 am 02:52 Cloudy 59 15 55 12.8 87 87 SSW 7 11 30.17 1022 10 16.0934 0 0
3:04 am 03:04 Cloudy 59 15 55 12.8 87 87 S 6 9 30.15 1021 10 16.0934 0 0
3:52 am 03:52 Cloudy 59 15 54 12.2 83 83 SSW 8 13 30.14 1021 10 16.0934 0 0
4:52 am 04:52 Cloudy with Light Rain 60 15.6 55 12.8 84 84 SW 7 11 30.14 1021 10 16.0934 0 0.0254
4:59 am 04:59 Cloudy with Light Rain 59 15 55 12.8 87 87 SSW 6 9 30.15 1021 10 16.0934 0 0.0254
5:40 am 05:40 Cloudy with Light Rain 59 15 56 13.3 90 90 SSW 8 13 30.15 1021 6 9.65604 0.02 0.508
5:46 am 05:46 Cloudy with Rain 59 15 55 13 88 88 SSW 8 13 30.15 1021 4 6.43736 0.03 0.762
5:52 am 05:52 Cloudy with Rain 59 15 56 13.3 90 90 SSW 7 11 30.13 1020 4 6.43736 0.04 1.016
5:59 am 05:59 Cloudy with Light Rain 59 15 56 13.3 90 90 SSW 6 9 30.12 1020 5 8.0467 0.02 0.508
6:52 am 06:52 Cloudy with Light Rain 60 15.6 57 13.9 90 90 S 10 17 30.13 1020 5 8.0467 0.05 1.27
7:23 am 07:23 Cloudy with Light Rain 59 15 56 13.3 90 90 S 13 20 30.12 1020 9 14.48406 0.01 0.254
7:39 am 07:39 Cloudy with Light Rain 60 15.6 56 13.3 86 86 S 12 19 30.12 1020 7 11.26538 0.01 0.254
7:52 am 07:52 Cloudy with Light Rain 60 15.6 57 13.9 90 90 S 12 19 30.12 1020 5 8.0467 0.02 0.508
8:11 am 08:11 Cloudy with Light Rain 60 15.6 57 13.9 90 90 S 10 17 30.12 1020 3 4.82802 0.02 0.508
8:52 am 08:52 Cloudy with Light Rain 60 15.6 57 13.9 90 90 S 13 20 30.12 1020 6 9.65604 0.05 1.27
9:37 am 09:37 Cloudy 61 16.1 58 14.4 90 90 S 12 19 30.12 1020 10 16.0934 0.01 0.254
9:52 am 09:52 Cloudy 62 16.7 58 14.4 86 86 S 10 17 30.1 1019 10 16.0934 0.01 0.254
10:52 am 10:52 Cloudy 64 17.8 60 15.6 87 87 SSW 16 26 30.09 1019 10 16.0934 0 0
11:09 am 11:09 Cloudy 65 18.3 60 15.6 84 84 SSW 10 17 30.09 1019 10 16.0934 0 0
11:52 am 11:52 Cloudy 67 19.4 61 16.1 81 81 SSW 10 17 30.07 1018 10 16.0934 0 0
12:17 pm 12:17 Cloudy 70 21.1 62 16.7 76 76 S 14 22 30.06 1018 10 16.0934 0 0
12:52 pm 12:52 Cloudy 68 20 61 16.1 78 78 SSW 10 17 30.05 1018 10 16.0934 0 0
1:52 pm 13:52 Cloudy 67 19.4 61 16.1 81 81 SSW 9 15 30.04 1017 10 16.0934 0 0.0254
2:52 pm 14:52 Cloudy 68 20 63 17.2 84 84 S 7 11 30.03 1017 10 16.0934 0 0.0254
3:52 pm 15:52 Cloudy with Light Rain 68 20 63 17.2 84 84 S 10 17 30.01 1016 10 16.0934 0 0.0254
4:52 pm 16:52 Cloudy 70 21.1 63 17.2 79 79 SSW 10 17 29.98 1015 10 16.0934 0.01 0.254
5:52 pm 17:52 Cloudy 70 21.1 63 17.2 79 79 SSW 12 19 29.98 1015 10 16.0934 0 0
6:52 pm 18:52 Mostly Cloudy 70 21.1 64 17.8 82 82 SSW 12 19 29.96 1015 10 16.0934 0 0
7:52 pm 19:52 Mostly Cloudy 72 22.2 65 18.3 79 79 SW 12 19 29.98 1015 10 16.0934 0 0
8:52 pm 20:52 Mostly Cloudy 73 22.8 65 18.3 76 76 S 9 15 29.96 1015 10 16.0934 0 0
9:52 pm 21:52 Partly Cloudy 74 23.3 65 18.3 74 74 SSW 10 17 29.98 1015 10 16.0934 0 0
10:52 pm 22:52 Cloudy 72 22.2 65 18.3 79 79 SSW 10 17 29.96 1015 10 16.0934 0 0
11:49 pm 23:49 Cloudy 72 22 61 16 69 69 NW 15 24 30.03 1017 10 16.0934 0 0
11:52 pm 23:52 Cloudy 71 21.7 61 16.1 71 71 NW 15 24 30.02 1017 10 16.0934 0 0

Powered by AerisWeather